Time,TemperatureF,DewpointF,PressureIn,WindDirection,WindDirectionDegrees,WindSpeedMPH,WindSpeedGustMPH,Humidity,HourlyPrecipIn,Conditions,Clouds,dailyrainin,SoftwareType,DateUTC
2013-05-07 00:01:00,68.0,45.0,29.91,WNW,293,5.0,7.0,43,0.00,,,0.00,,2013-05-07 07:01:00,
2013-05-07 00:11:00,68.0,45.0,29.91,WNW,293,5.0,7.0,43,0.00,,,0.00,,2013-05-07 07:11:00,
2013-05-07 00:22:00,68.0,45.0,29.91,NW,315,9.0,16.0,44,0.00,,,0.00,,2013-05-07 07:22:00,
2013-05-07 00:31:00,67.0,45.0,29.91,NW,315,7.0,15.0,45,0.00,,,0.00,,2013-05-07 07:31:00,
2013-05-07 00:42:00,67.0,45.0,29.91,NW,315,7.0,15.0,45,0.00,,,0.00,,2013-05-07 07:42:00,
2013-05-07 00:52:00,67.0,46.0,29.92,WNW,293,7.0,15.0,46,0.00,,,0.00,,2013-05-07 07:52:00,
2013-05-07 01:02:00,67.0,46.0,29.92,WNW,293,5.0,8.0,46,0.00,,,0.00,,2013-05-07 08:02:00,
2013-05-07 01:11:00,67.0,46.0,29.92,WNW,293,5.0,8.0,46,0.00,,,0.00,,2013-05-07 08:11:00,
2013-05-07 01:21:00,67.0,46.0,29.91,NW,315,7.0,12.0,47,0.00,,,0.00,,2013-05-07 08:21:00,
2013-05-07 01:31:00,66.0,45.0,29.91,NNW,338,3.0,10.0,47,0.00,,,0.00,,2013-05-07 08:31:00,
2013-05-07 01:41:00,66.0,45.0,29.91,NNW,338,3.0,10.0,47,0.00,,,0.00,,2013-05-07 08:41:00,
2013-05-07 01:52:00,66.0,46.0,29.91,NW,315,5.0,9.0,48,0.00,,,0.00,,2013-05-07 08:52:00,
2013-05-07 02:01:00,66.0,46.0,29.91,WNW,293,5.0,8.0,48,0.00,,,0.00,,2013-05-07 09:01:00,
2013-05-07 02:11:00,66.0,46.0,29.91,WNW,293,5.0,8.0,48,0.00,,,0.00,,2013-05-07 09:11:00,
2013-05-07 02:22:00,66.0,46.0,29.91,NW,315,6.0,10.0,49,0.00,,,0.00,,2013-05-07 09:22:00,
2013-05-07 02:33:00,66.0,47.0,29.91,WNW,293,3.0,7.0,50,0.00,,,0.00,,2013-05-07 09:33:00,
2013-05-07 02:42:00,66.0,47.0,29.91,WNW,293,3.0,7.0,50,0.00,,,0.00,,2013-05-07 09:42:00,
2013-05-07 02:52:00,65.0,46.0,29.91,WNW,293,6.0,12.0,50,0.00,,,0.00,,2013-05-07 09:52:00,
2013-05-07 03:02:00,65.0,46.0,29.91,NW,315,6.0,9.0,51,0.00,,,0.00,,2013-05-07 10:02:00,
2013-05-07 03:12:00,65.0,46.0,29.91,NW,315,6.0,9.0,51,0.00,,,0.00,,2013-05-07 10:12:00,
2013-05-07 03:22:00,65.0,46.0,29.91,NW,315,5.0,8.0,50,0.00,,,0.00,,2013-05-07 10:22:00,
2013-05-07 03:32:00,65.0,45.0,29.91,WNW,293,5.0,12.0,49,0.00,,,0.00,,2013-05-07 10:32:00,
2013-05-07 03:42:00,65.0,45.0,29.91,NW,315,7.0,12.0,49,0.00,,,0.00,,2013-05-07 10:42:00,
2013-05-07 03:52:00,65.0,45.0,29.91,NW,315,7.0,12.0,49,0.00,,,0.00,,2013-05-07 10:52:00,
2013-05-07 04:02:00,65.0,46.0,29.91,West,270,2.0,3.0,50,0.00,,,0.00,,2013-05-07 11:02:00,
2013-05-07 04:11:00,65.0,46.0,29.91,West,270,2.0,3.0,50,0.00,,,0.00,,2013-05-07 11:11:00,
2013-05-07 04:21:00,65.0,45.0,29.92,WNW,293,2.0,8.0,49,0.00,,,0.00,,2013-05-07 11:21:00,
2013-05-07 04:31:00,65.0,45.0,29.92,West,270,2.0,5.0,49,0.00,,,0.00,,2013-05-07 11:31:00,
2013-05-07 04:42:00,65.0,45.0,29.92,West,270,2.0,5.0,49,0.00,,,0.00,,2013-05-07 11:42:00,
2013-05-07 04:52:00,65.0,46.0,29.92,WNW,293,2.0,3.0,50,0.00,,,0.00,,2013-05-07 11:52:00,
2013-05-07 05:01:00,65.0,46.0,29.92,NW,315,2.0,5.0,51,0.00,,,0.00,,2013-05-07 12:01:00,
2013-05-07 05:11:00,65.0,46.0,29.92,NW,315,2.0,5.0,51,0.00,,,0.00,,2013-05-07 12:11:00,
2013-05-07 05:21:00,65.0,47.0,29.93,WNW,293,1.0,3.0,52,0.00,,,0.00,,2013-05-07 12:21:00,
2013-05-07 05:32:00,65.0,47.0,29.93,WNW,293,2.0,3.0,52,0.00,,,0.00,,2013-05-07 12:32:00,
2013-05-07 05:41:00,65.0,47.0,29.93,WNW,293,2.0,3.0,52,0.00,,,0.00,,2013-05-07 12:41:00,
2013-05-07 05:52:00,65.0,47.0,29.93,WNW,293,0.0,2.0,52,0.00,,,0.00,,2013-05-07 12:52:00,
2013-05-07 06:01:00,64.0,45.0,29.93,WNW,293,1.0,2.0,51,0.00,,,0.00,,2013-05-07 13:01:00,
2013-05-07 06:11:00,64.0,45.0,29.93,WNW,293,1.0,2.0,51,0.00,,,0.00,,2013-05-07 13:11:00,
2013-05-07 06:21:00,64.0,45.0,29.94,NW,315,2.0,2.0,51,0.00,,,0.00,,2013-05-07 13:21:00,
2013-05-07 06:32:00,64.0,45.0,29.95,WNW,293,2.0,3.0,51,0.00,,,0.00,,2013-05-07 13:32:00,
2013-05-07 06:42:00,64.0,45.0,29.95,WNW,293,2.0,3.0,51,0.00,,,0.00,,2013-05-07 13:42:00,
2013-05-07 06:52:00,65.0,46.0,29.95,WNW,293,0.0,1.0,50,0.00,,,0.00,,2013-05-07 13:52:00,
2013-05-07 07:01:00,66.0,47.0,29.96,WNW,293,0.0,0.0,51,0.00,,,0.00,,2013-05-07 14:01:00,
2013-05-07 07:11:00,66.0,47.0,29.96,WNW,293,0.0,0.0,51,0.00,,,0.00,,2013-05-07 14:11:00,
2013-05-07 07:21:00,66.0,47.0,29.96,WNW,293,0.0,0.0,50,0.00,,,0.00,,2013-05-07 14:21:00,
2013-05-07 07:31:00,67.0,47.0,29.96,WNW,293,1.0,2.0,49,0.00,,,0.00,,2013-05-07 14:31:00,
2013-05-07 07:42:00,67.0,47.0,29.96,WNW,293,1.0,2.0,49,0.00,,,0.00,,2013-05-07 14:42:00,
2013-05-07 07:52:00,68.0,48.0,29.97,WNW,293,0.0,2.0,49,0.00,,,0.00,,2013-05-07 14:52:00,
2013-05-07 08:01:00,68.0,48.0,29.98,WNW,293,1.0,3.0,49,0.00,,,0.00,,2013-05-07 15:01:00,
2013-05-07 08:11:00,68.0,48.0,29.98,WNW,293,1.0,3.0,49,0.00,,,0.00,,2013-05-07 15:11:00,
2013-05-07 08:21:00,69.0,48.0,29.98,WNW,293,6.0,10.0,47,0.00,,,0.00,,2013-05-07 15:21:00,
2013-05-07 08:32:00,69.0,47.0,29.98,West,270,6.0,10.0,46,0.00,,,0.00,,2013-05-07 15:32:00,
2013-05-07 08:42:00,69.0,47.0,29.98,West,270,6.0,10.0,46,0.00,,,0.00,,2013-05-07 15:42:00,
2013-05-07 08:53:00,69.0,47.0,29.98,West,270,6.0,10.0,46,0.00,,,0.00,,2013-05-07 15:53:00,
2013-05-07 09:02:00,70.0,47.0,29.98,West,270,5.0,12.0,44,0.00,,,0.00,,2013-05-07 16:02:00,
2013-05-07 09:12:00,70.0,46.0,29.98,West,270,7.0,14.0,42,0.00,,,0.00,,2013-05-07 16:12:00,
2013-05-07 09:22:00,70.0,46.0,29.98,West,270,7.0,14.0,42,0.00,,,0.00,,2013-05-07 16:22:00,
2013-05-07 09:32:00,71.0,48.0,29.99,West,270,5.0,9.0,44,0.00,,,0.00,,2013-05-07 16:32:00,
2013-05-07 09:41:00,71.0,48.0,29.99,West,270,5.0,9.0,44,0.00,,,0.00,,2013-05-07 16:41:00,
2013-05-07 09:52:00,71.0,48.0,29.99,West,270,5.0,9.0,44,0.00,,,0.00,,2013-05-07 16:52:00,
2013-05-07 10:01:00,71.0,47.0,29.98,WNW,293,6.0,8.0,43,0.00,,,0.00,,2013-05-07 17:01:00,
2013-05-07 10:11:00,72.0,46.0,29.98,NW,315,2.0,5.0,40,0.00,,,0.00,,2013-05-07 17:11:00,
2013-05-07 10:21:00,72.0,46.0,29.98,NW,315,2.0,5.0,40,0.00,,,0.00,,2013-05-07 17:21:00,
2013-05-07 10:31:00,73.0,47.0,29.98,WSW,248,1.0,2.0,40,0.00,,,0.00,,2013-05-07 17:31:00,
2013-05-07 10:41:00,74.0,47.0,29.98,WSW,248,6.0,8.0,38,0.00,,,0.00,,2013-05-07 17:41:00,
2013-05-07 10:52:00,74.0,47.0,29.98,WSW,248,6.0,8.0,38,0.00,,,0.00,,2013-05-07 17:52:00,
2013-05-07 11:01:00,74.0,47.0,29.98,SW,225,2.0,5.0,38,0.00,,,0.00,,2013-05-07 18:01:00,
2013-05-07 11:11:00,75.0,48.0,29.97,WSW,248,3.0,5.0,38,0.00,,,0.00,,2013-05-07 18:11:00,
2013-05-07 11:21:00,75.0,48.0,29.97,WSW,248,3.0,5.0,38,0.00,,,0.00,,2013-05-07 18:21:00,
2013-05-07 11:31:00,75.0,47.0,29.97,South,180,5.0,8.0,37,0.00,,,0.00,,2013-05-07 18:31:00,
2013-05-07 11:41:00,75.0,47.0,29.97,South,180,5.0,8.0,37,0.00,,,0.00,,2013-05-07 18:41:00,
2013-05-07 11:52:00,75.0,46.0,29.97,South,180,2.0,3.0,36,0.00,,,0.00,,2013-05-07 18:52:00,
2013-05-07 12:01:00,76.0,48.0,29.96,SW,225,7.0,10.0,37,0.00,,,0.00,,2013-05-07 19:01:00,
2013-05-07 12:11:00,76.0,48.0,29.96,SW,225,7.0,10.0,37,0.00,,,0.00,,2013-05-07 19:11:00,
2013-05-07 12:21:00,76.0,48.0,29.95,SW,225,8.0,12.0,37,0.00,,,0.00,,2013-05-07 19:21:00,
2013-05-07 12:31:00,76.0,47.0,29.95,West,270,2.0,3.0,36,0.00,,,0.00,,2013-05-07 19:31:00,
2013-05-07 12:41:00,76.0,47.0,29.95,West,270,2.0,3.0,36,0.00,,,0.00,,2013-05-07 19:41:00,
2013-05-07 12:52:00,75.0,48.0,29.95,South,180,2.0,5.0,39,0.00,,,0.00,,2013-05-07 19:52:00,
2013-05-07 13:01:00,76.0,48.0,29.95,South,180,6.0,8.0,37,0.00,,,0.00,,2013-05-07 20:01:00,
2013-05-07 13:11:00,76.0,48.0,29.95,South,180,6.0,8.0,37,0.00,,,0.00,,2013-05-07 20:11:00,
2013-05-07 13:21:00,77.0,49.0,29.94,WSW,248,7.0,12.0,38,0.00,,,0.00,,2013-05-07 20:21:00,
2013-05-07 13:32:00,78.0,48.0,29.95,SW,225,6.0,12.0,35,0.00,,,0.00,,2013-05-07 20:32:00,
2013-05-07 13:41:00,78.0,48.0,29.95,SW,225,6.0,12.0,35,0.00,,,0.00,,2013-05-07 20:41:00,
2013-05-07 13:51:00,78.0,47.0,29.93,South,180,5.0,7.0,33,0.00,,,0.00,,2013-05-07 20:51:00,
2013-05-07 14:01:00,78.0,48.0,29.93,SW,225,3.0,5.0,35,0.00,,,0.00,,2013-05-07 21:01:00,
2013-05-07 14:11:00,78.0,48.0,29.93,SW,225,3.0,5.0,35,0.00,,,0.00,,2013-05-07 21:11:00,
2013-05-07 14:21:00,78.0,48.0,29.93,WSW,248,5.0,8.0,35,0.00,,,0.00,,2013-05-07 21:21:00,
2013-05-07 14:32:00,79.0,48.0,29.92,WSW,248,7.0,10.0,34,0.00,,,0.00,,2013-05-07 21:32:00,
2013-05-07 14:42:00,79.0,48.0,29.92,WSW,248,7.0,10.0,34,0.00,,,0.00,,2013-05-07 21:42:00,
2013-05-07 14:53:00,79.0,47.0,29.92,WSW,248,6.0,7.0,32,0.00,,,0.00,,2013-05-07 21:53:00,
2013-05-07 15:02:00,79.0,47.0,29.92,West,270,2.0,3.0,33,0.00,,,0.00,,2013-05-07 22:02:00,
2013-05-07 15:12:00,79.0,47.0,29.92,West,270,2.0,3.0,33,0.00,,,0.00,,2013-05-07 22:12:00,
2013-05-07 15:22:00,80.0,48.0,29.91,West,270,5.0,8.0,33,0.00,,,0.00,,2013-05-07 22:22:00,
2013-05-07 15:32:00,80.0,48.0,29.91,WNW,293,5.0,7.0,33,0.00,,,0.00,,2013-05-07 22:32:00,
2013-05-07 15:42:00,80.0,48.0,29.90,WSW,248,3.0,6.0,33,0.00,,,0.00,,2013-05-07 22:42:00,
2013-05-07 15:52:00,80.0,48.0,29.90,WSW,248,3.0,6.0,33,0.00,,,0.00,,2013-05-07 22:52:00,
2013-05-07 16:01:00,80.0,47.0,29.90,West,270,7.0,12.0,32,0.00,,,0.00,,2013-05-07 23:01:00,
2013-05-07 16:11:00,80.0,47.0,29.89,West,270,6.0,12.0,31,0.00,,,0.00,,2013-05-07 23:11:00,
2013-05-07 16:21:00,80.0,47.0,29.89,West,270,6.0,12.0,31,0.00,,,0.00,,2013-05-07 23:21:00,
2013-05-07 16:32:00,80.0,48.0,29.89,WNW,293,3.0,6.0,33,0.00,,,0.00,,2013-05-07 23:32:00,
2013-05-07 16:41:00,80.0,49.0,29.89,West,270,3.0,9.0,34,0.00,,,0.00,,2013-05-07 23:41:00,
2013-05-07 16:52:00,80.0,49.0,29.89,West,270,3.0,9.0,34,0.00,,,0.00,,2013-05-07 23:52:00,
2013-05-07 17:01:00,79.0,47.0,29.88,WSW,248,3.0,5.0,32,0.00,,,0.00,,2013-05-08 00:01:00,
2013-05-07 17:11:00,78.0,46.0,29.88,West,270,5.0,8.0,32,0.00,,,0.00,,2013-05-08 00:11:00,
2013-05-07 17:21:00,78.0,46.0,29.88,West,270,5.0,8.0,32,0.00,,,0.00,,2013-05-08 00:21:00,
2013-05-07 17:32:00,78.0,46.0,29.88,WSW,248,2.0,3.0,32,0.00,,,0.00,,2013-05-08 00:32:00,
2013-05-07 17:41:00,78.0,45.0,29.88,WNW,293,3.0,6.0,31,0.00,,,0.00,,2013-05-08 00:41:00,
2013-05-07 17:51:00,78.0,45.0,29.88,WNW,293,3.0,6.0,31,0.00,,,0.00,,2013-05-08 00:51:00,
2013-05-07 18:01:00,77.0,44.0,29.88,West,270,5.0,10.0,31,0.00,,,0.00,,2013-05-08 01:01:00,
2013-05-07 18:11:00,77.0,44.0,29.87,West,270,3.0,5.0,31,0.00,,,0.00,,2013-05-08 01:11:00,
2013-05-07 18:21:00,77.0,44.0,29.87,West,270,3.0,5.0,31,0.00,,,0.00,,2013-05-08 01:21:00,
2013-05-07 18:31:00,76.0,43.0,29.88,WNW,293,5.0,8.0,31,0.00,,,0.00,,2013-05-08 01:31:00,
2013-05-07 18:42:00,76.0,43.0,29.88,WNW,293,2.0,5.0,31,0.00,,,0.00,,2013-05-08 01:42:00,
2013-05-07 18:52:00,76.0,43.0,29.88,WNW,293,2.0,5.0,31,0.00,,,0.00,,2013-05-08 01:52:00,
2013-05-07 19:01:00,75.0,43.0,29.88,WNW,293,6.0,13.0,32,0.00,,,0.00,,2013-05-08 02:01:00,
2013-05-07 19:11:00,75.0,43.0,29.88,WNW,293,6.0,13.0,32,0.00,,,0.00,,2013-05-08 02:11:00,
2013-05-07 19:21:00,74.0,43.0,29.88,West,270,2.0,7.0,33,0.00,,,0.00,,2013-05-08 02:21:00,
2013-05-07 19:31:00,74.0,43.0,29.88,West,270,5.0,7.0,33,0.00,,,0.00,,2013-05-08 02:31:00,
2013-05-07 19:42:00,73.0,43.0,29.88,WNW,293,5.0,6.0,34,0.00,,,0.00,,2013-05-08 02:42:00,
2013-05-07 19:52:00,73.0,43.0,29.88,WNW,293,5.0,6.0,34,0.00,,,0.00,,2013-05-08 02:52:00,
2013-05-07 20:01:00,72.0,43.0,29.89,NW,315,2.0,5.0,35,0.00,,,0.00,,2013-05-08 03:01:00,
2013-05-07 20:11:00,72.0,43.0,29.89,NW,315,2.0,5.0,35,0.00,,,0.00,,2013-05-08 03:11:00,
2013-05-07 20:21:00,72.0,46.0,29.89,WNW,293,3.0,7.0,39,0.00,,,0.00,,2013-05-08 03:21:00,
2013-05-07 20:32:00,72.0,44.0,29.90,West,270,3.0,7.0,36,0.00,,,0.00,,2013-05-08 03:32:00,
2013-05-07 20:43:00,72.0,44.0,29.90,West,270,3.0,7.0,36,0.00,,,0.00,,2013-05-08 03:43:00,
2013-05-07 20:52:00,71.0,43.0,29.91,West,270,2.0,3.0,36,0.00,,,0.00,,2013-05-08 03:52:00,
2013-05-07 21:02:00,70.0,43.0,29.91,West,270,6.0,12.0,37,0.00,,,0.00,,2013-05-08 04:02:00,
2013-05-07 21:12:00,70.0,43.0,29.91,West,270,6.0,12.0,37,0.00,,,0.00,,2013-05-08 04:12:00,
2013-05-07 21:22:00,70.0,43.0,29.93,West,270,2.0,3.0,38,0.00,,,0.00,,2013-05-08 04:22:00,
2013-05-07 21:32:00,69.0,43.0,29.93,West,270,3.0,7.0,39,0.00,,,0.00,,2013-05-08 04:32:00,
2013-05-07 21:42:00,69.0,43.0,29.93,West,270,3.0,7.0,39,0.00,,,0.00,,2013-05-08 04:42:00,
2013-05-07 21:52:00,69.0,44.0,29.93,WNW,293,2.0,3.0,41,0.00,,,0.00,,2013-05-08 04:52:00,
2013-05-07 22:02:00,68.0,43.0,29.93,WNW,293,0.0,2.0,41,0.00,,,0.00,,2013-05-08 05:02:00,
2013-05-07 22:12:00,68.0,43.0,29.93,WNW,293,0.0,2.0,41,0.00,,,0.00,,2013-05-08 05:12:00,
2013-05-07 22:22:00,68.0,44.0,29.93,NW,315,2.0,7.0,42,0.00,,,0.00,,2013-05-08 05:22:00,
2013-05-07 22:32:00,68.0,43.0,29.94,West,270,2.0,3.0,41,0.00,,,0.00,,2013-05-08 05:32:00,
2013-05-07 22:42:00,68.0,43.0,29.94,West,270,2.0,3.0,41,0.00,,,0.00,,2013-05-08 05:42:00,
2013-05-07 22:52:00,67.0,43.0,29.95,West,270,2.0,5.0,41,0.00,,,0.00,,2013-05-08 05:52:00,
2013-05-07 23:01:00,67.0,43.0,29.94,West,270,1.0,3.0,42,0.00,,,0.00,,2013-05-08 06:01:00,
2013-05-07 23:11:00,67.0,43.0,29.94,West,270,1.0,3.0,42,0.00,,,0.00,,2013-05-08 06:11:00,
2013-05-07 23:21:00,66.0,42.0,29.96,WSW,248,2.0,5.0,42,0.00,,,0.00,,2013-05-08 06:21:00,
2013-05-07 23:31:00,67.0,43.0,29.95,West,270,3.0,6.0,42,0.00,,,0.00,,2013-05-08 06:31:00,
2013-05-07 23:41:00,67.0,43.0,29.95,West,270,3.0,6.0,42,0.00,,,0.00,,2013-05-08 06:41:00,
2013-05-07 23:52:00,66.0,42.0,29.95,West,270,3.0,8.0,42,0.00,,,0.00,,2013-05-08 06:52:00,